,,,PA_Meas_PMT16A,,PR_Meas_QMR101_102,,RH_Meas_QMH101,,SR_Meas_QMS101,,TA_Meas_QMH101,,GenWind,,GenWind,
date,time,status,PA,status,PR,status,RH,status,SR,status,TA,status,DirAvg,status,SpdAvg,
2013-12-29, 00:00:04,VALID,1009.35,VALID,0,VALID,104,VALID,0,VALID,23.6356,VALID,351,VALID,0,
2013-12-29, 00:01:04,VALID,1009.33,VALID,0,VALID,104,VALID,0,VALID,23.6373,VALID,351,VALID,0,
2013-12-29, 00:02:04,VALID,1009.33,VALID,0,VALID,104,VALID,0,VALID,23.5966,VALID,351,VALID,0,
2013-12-29, 00:03:04,VALID,1009.35,VALID,0,VALID,104,VALID,0,VALID,23.5984,VALID,351,VALID,0,
2013-12-29, 00:04:04,VALID,1009.36,VALID,0,VALID,104,VALID,0,VALID,23.5576,VALID,351,VALID,0,
2013-12-29, 00:05:04,VALID,1009.38,VALID,0,VALID,104,VALID,0,VALID,23.5381,VALID,351,VALID,0,
2013-12-29, 00:06:04,VALID,1009.37,VALID,0,VALID,104,VALID,0,VALID,23.5204,VALID,351,VALID,0,
2013-12-29, 00:07:04,VALID,1009.37,VALID,0,VALID,104,VALID,0,VALID,23.4602,VALID,351,VALID,0,
2013-12-29, 00:08:04,VALID,1009.37,VALID,0,VALID,104,VALID,0,VALID,23.4407,VALID,351,VALID,0,
2013-12-29, 00:09:04,VALID,1009.37,VALID,0,VALID,104,VALID,0,VALID,23.4389,VALID,351,VALID,0,
2013-12-29, 00:10:04,VALID,1009.35,VALID,0,VALID,104,VALID,0,VALID,23.4212,VALID,351,VALID,0,
2013-12-29, 00:11:04,VALID,1009.37,VALID,0,VALID,104,VALID,0,VALID,23.4407,VALID,351,VALID,0,
2013-12-29, 00:12:04,VALID,1009.35,VALID,0,VALID,104,VALID,0,VALID,23.4212,VALID,351,VALID,0,
2013-12-29, 00:13:04,VALID,1009.35,VALID,0,VALID,104,VALID,0,VALID,23.4407,VALID,351,VALID,0,
2013-12-29, 00:14:04,VALID,1009.32,VALID,0,VALID,104,VALID,0,VALID,23.4602,VALID,351,VALID,0,
2013-12-29, 00:15:04,VALID,1009.34,VALID,0,VALID,104,VALID,0,VALID,23.4992,VALID,351,VALID,0,
2013-12-29, 00:16:04,VALID,1009.31,VALID,0,VALID,104,VALID,0,VALID,23.4797,VALID,351,VALID,0,
2013-12-29, 00:17:04,VALID,1009.33,VALID,0,VALID,104,VALID,0,VALID,23.4797,VALID,351,VALID,0,
2013-12-29, 00:18:04,VALID,1009.34,VALID,0,VALID,104,VALID,0,VALID,23.4797,VALID,351,VALID,0,
2013-12-29, 00:19:04,VALID,1009.31,VALID,0,VALID,104,VALID,0,VALID,23.4602,VALID,351,VALID,0,
2013-12-29, 00:20:04,VALID,1009.31,VALID,0,VALID,104,VALID,0,VALID,23.4407,VALID,351,VALID,0,
2013-12-29, 00:21:04,VALID,1009.28,VALID,0,VALID,104,VALID,0,VALID,23.4602,VALID,351,VALID,0,
2013-12-29, 00:22:04,VALID,1009.3,VALID,0,VALID,104,VALID,0,VALID,23.4602,VALID,351,VALID,0,
2013-12-29, 00:23:04,VALID,1009.28,VALID,0,VALID,104,VALID,0,VALID,23.5009,VALID,351,VALID,0,
2013-12-29, 00:24:04,VALID,1009.3,VALID,0,VALID,104,VALID,0,VALID,23.4797,VALID,351,VALID,0,
2013-12-29, 00:25:04,VALID,1009.25,VALID,0,VALID,104,VALID,0,VALID,23.4992,VALID,351,VALID,0,
2013-12-29, 00:26:04,VALID,1009.23,VALID,0,VALID,104,VALID,0,VALID,23.4584,VALID,351,VALID,0,
2013-12-29, 00:27:04,VALID,1009.21,VALID,0,VALID,104,VALID,0,VALID,23.4407,VALID,351,VALID,0,
2013-12-29, 00:28:04,VALID,1009.2,VALID,0,VALID,104,VALID,0,VALID,23.4212,VALID,351,VALID,0,
2013-12-29, 00:29:04,VALID,1009.19,VALID,0,VALID,104,VALID,0,VALID,23.4017,VALID,351,VALID,0,
2013-12-29, 00:30:04,VALID,1009.19,VALID,0,VALID,104,VALID,0,VALID,23.3823,VALID,351,VALID,0,
2013-12-29, 00:31:04,VALID,1009.18,VALID,0,VALID,104,VALID,0,VALID,23.3823,VALID,351,VALID,0,
2013-12-29, 00:32:04,VALID,1009.19,VALID,0,VALID,104,VALID,0,VALID,23.3823,VALID,351,VALID,0,
2013-12-29, 00:33:04,VALID,1009.2,VALID,0,VALID,104,VALID,0,VALID,23.3823,VALID,351,VALID,0,
2013-12-29, 00:34:04,VALID,1009.19,VALID,0,VALID,104,VALID,0,VALID,23.3823,VALID,351,VALID,0,
2013-12-29, 00:35:04,VALID,1009.18,VALID,0,VALID,104,VALID,0,VALID,23.3823,VALID,351,VALID,0,
2013-12-29, 00:36:04,VALID,1009.18,VALID,0,VALID,104,VALID,0,VALID,23.4017,VALID,351,VALID,0,
2013-12-29, 00:37:04,VALID,1009.21,VALID,0,VALID,104,VALID,0,VALID,23.4017,VALID,351,VALID,0,
2013-12-29, 00:38:04,VALID,1009.21,VALID,0,VALID,104,VALID,0,VALID,23.4017,VALID,351,VALID,0,
2013-12-29, 00:39:04,VALID,1009.21,VALID,0,VALID,104,VALID,0,VALID,23.4017,VALID,351,VALID,0,
2013-12-29, 00:40:04,VALID,1009.18,VALID,0,VALID,104,VALID,0,VALID,23.4212,VALID,351,VALID,0,
2013-12-29, 00:41:04,VALID,1009.15,VALID,0,VALID,104,VALID,0,VALID,23.4212,VALID,351,VALID,0,
2013-12-29, 00:42:04,VALID,1009.17,VALID,0,VALID,104,VALID,0,VALID,23.4,VALID,351,VALID,0,
2013-12-29, 00:43:04,VALID,1009.13,VALID,0,VALID,104,VALID,0,VALID,23.4212,VALID,351,VALID,0,
2013-12-29, 00:44:04,VALID,1009.12,VALID,0,VALID,104,VALID,0,VALID,23.4407,VALID,351,VALID,0,
2013-12-29, 00:45:04,VALID,1009.13,VALID,0,VALID,104,VALID,0,VALID,23.4407,VALID,351,VALID,0,
2013-12-29, 00:46:04,VALID,1009.1,VALID,0,VALID,104,VALID,0,VALID,23.4407,VALID,351,VALID,0,
2013-12-29, 00:47:04,VALID,1009.07,VALID,0,VALID,104,VALID,0,VALID,23.4212,VALID,351,VALID,0,
2013-12-29, 00:48:04,VALID,1009.09,VALID,0,VALID,104,VALID,0,VALID,23.4212,VALID,351,VALID,0,
2013-12-29, 00:49:04,VALID,1009.07,VALID,0,VALID,104,VALID,0,VALID,23.4194,VALID,351,VALID,0,
2013-12-29, 00:50:04,VALID,1009.05,VALID,0,VALID,104,VALID,0.112112,VALID,23.4584,VALID,351,VALID,0,
2013-12-29, 00:51:04,VALID,1009.09,VALID,0,VALID,104,VALID,0.112112,VALID,23.4584,VALID,351,VALID,0,
2013-12-29, 00:52:04,VALID,1009.08,VALID,0,VALID,104,VALID,0.112112,VALID,23.4779,VALID,351,VALID,0,
2013-12-29, 00:53:04,VALID,1009.05,VALID,0,VALID,104,VALID,0.112112,VALID,23.4779,VALID,351,VALID,0,
2013-12-29, 00:54:04,VALID,1009.04,VALID,0,VALID,104,VALID,0.112112,VALID,23.4389,VALID,351,VALID,0,
2013-12-29, 00:55:04,VALID,1009.02,VALID,0,VALID,104,VALID,0.112112,VALID,23.4584,VALID,351,VALID,0,
2013-12-29, 00:56:04,VALID,1009.03,VALID,0,VALID,104,VALID,0.112112,VALID,23.4584,VALID,351,VALID,0,
2013-12-29, 00:57:04,VALID,1009.02,VALID,0,VALID,104,VALID,0,VALID,23.4779,VALID,351,VALID,0,
2013-12-29, 00:58:04,VALID,1009.05,VALID,0,VALID,104,VALID,0,VALID,23.4779,VALID,351,VALID,0,
2013-12-29, 00:59:04,VALID,1009.04,VALID,0,VALID,104,VALID,0.112112,VALID,23.4584,VALID,351,VALID,0,
2013-12-29, 01:00:04,VALID,1009.02,VALID,0,VALID,104,VALID,0,VALID,23.4584,VALID,351,VALID,0,
2013-12-29, 01:01:04,VALID,1008.99,VALID,0,VALID,104,VALID,0.112112,VALID,23.4389,VALID,351,VALID,0,
2013-12-29, 01:02:04,VALID,1009,VALID,0,VALID,104,VALID,0.112112,VALID,23.4194,VALID,351,VALID,0,
2013-12-29, 01:03:04,VALID,1009,VALID,0,VALID,104,VALID,0,VALID,23.4,VALID,351,VALID,0,
2013-12-29, 01:04:04,VALID,1008.95,VALID,0,VALID,104,VALID,0.112112,VALID,23.3805,VALID,351,VALID,0,
2013-12-29, 01:05:04,VALID,1008.94,VALID,0,VALID,104,VALID,0,VALID,23.361,VALID,351,VALID,0,
2013-12-29, 01:06:04,VALID,1008.93,VALID,0,VALID,104,VALID,0.112112,VALID,23.3805,VALID,351,VALID,0,
2013-12-29, 01:07:04,VALID,1008.9,VALID,0,VALID,104,VALID,0.112112,VALID,23.4,VALID,351,VALID,0,
2013-12-29, 01:08:04,VALID,1008.91,VALID,0,VALID,104,VALID,0.112112,VALID,23.4194,VALID,351,VALID,0,
2013-12-29, 01:09:04,VALID,1008.9,VALID,0,VALID,104,VALID,0,VALID,23.4194,VALID,351,VALID,0,
2013-12-29, 01:10:04,VALID,1008.88,VALID,0,VALID,104,VALID,0.112112,VALID,23.4,VALID,351,VALID,0,
2013-12-29, 01:11:04,VALID,1008.88,VALID,0,VALID,104,VALID,0.112112,VALID,23.3805,VALID,351,VALID,0,
2013-12-29, 01:12:04,VALID,1008.86,VALID,0,VALID,104,VALID,0.112112,VALID,23.3398,VALID,351,VALID,0,
2013-12-29, 01:13:04,VALID,1008.87,VALID,0,VALID,104,VALID,0.112112,VALID,23.322,VALID,351,VALID,0,
2013-12-29, 01:14:04,VALID,1008.81,VALID,0,VALID,104,VALID,0.112112,VALID,23.3415,VALID,351,VALID,0,
2013-12-29, 01:15:04,VALID,1008.81,VALID,0,VALID,104,VALID,0.112112,VALID,23.322,VALID,351,VALID,0,
2013-12-29, 01:16:04,VALID,1008.76,VALID,0,VALID,104,VALID,0.112112,VALID,23.322,VALID,351,VALID,0,
2013-12-29, 01:17:04,VALID,1008.72,VALID,0,VALID,104,VALID,0,VALID,23.3026,VALID,351,VALID,0,
2013-12-29, 01:18:04,VALID,1008.69,VALID,0,VALID,104,VALID,0.112112,VALID,23.322,VALID,351,VALID,0,
2013-12-29, 01:19:04,VALID,1008.68,VALID,0,VALID,104,VALID,0,VALID,23.3043,VALID,351,VALID,0,
2013-12-29, 01:20:04,VALID,1008.66,VALID,0,VALID,104,VALID,0,VALID,23.3238,VALID,351,VALID,0,
2013-12-29, 01:21:04,VALID,1008.64,VALID,0,VALID,104,VALID,0,VALID,23.3238,VALID,351,VALID,0,
2013-12-29, 01:22:04,VALID,1008.64,VALID,0,VALID,104,VALID,0,VALID,23.3433,VALID,351,VALID,0,
2013-12-29, 01:23:04,VALID,1008.62,VALID,0,VALID,104,VALID,0,VALID,23.3238,VALID,351,VALID,0,
2013-12-29, 01:24:04,VALID,1008.62,VALID,0,VALID,104,VALID,0,VALID,23.3433,VALID,351,VALID,0,
2013-12-29, 01:25:04,VALID,1008.59,VALID,0,VALID,104,VALID,0,VALID,23.3433,VALID,351,VALID,0,
2013-12-29, 01:26:04,VALID,1008.63,VALID,0,VALID,104,VALID,0,VALID,23.3628,VALID,351,VALID,0,
2013-12-29, 01:27:04,VALID,1008.61,VALID,0,VALID,104,VALID,0,VALID,23.3645,VALID,351,VALID,0,
2013-12-29, 01:28:04,VALID,1008.64,VALID,0,VALID,104,VALID,0,VALID,23.3238,VALID,351,VALID,0,
2013-12-29, 01:29:04,VALID,1008.63,VALID,0,VALID,104,VALID,0,VALID,23.3043,VALID,351,VALID,0,
2013-12-29, 01:30:04,VALID,1008.62,VALID,0,VALID,104,VALID,0,VALID,23.2848,VALID,351,VALID,0,
2013-12-29, 01:31:04,VALID,1008.59,VALID,0,VALID,104,VALID,0,VALID,23.2264,VALID,351,VALID,0,
2013-12-29, 01:32:04,VALID,1008.61,VALID,0,VALID,104,VALID,0,VALID,23.2476,VALID,351,VALID,0,
2013-12-29, 01:33:04,VALID,1008.6,VALID,0,VALID,104,VALID,0,VALID,23.1874,VALID,351,VALID,0,
2013-12-29, 01:34:04,VALID,1008.59,VALID,0,VALID,104,VALID,0,VALID,23.1874,VALID,351,VALID,0,
2013-12-29, 01:35:04,VALID,1008.59,VALID,0,VALID,104,VALID,0,VALID,23.1874,VALID,351,VALID,0,
2013-12-29, 01:36:04,VALID,1008.62,VALID,0,VALID,104,VALID,0,VALID,23.1874,VALID,351,VALID,0,
2013-12-29, 01:37:04,VALID,1008.62,VALID,0,VALID,104,VALID,0,VALID,23.1874,VALID,351,VALID,0,
2013-12-29, 01:38:04,VALID,1008.63,VALID,0,VALID,104,VALID,0,VALID,23.1679,VALID,351,VALID,0,
2013-12-29, 01:39:04,VALID,1008.62,VALID,0,VALID,104,VALID,0,VALID,23.1485,VALID,351,VALID,0,
2013-12-29, 01:40:04,VALID,1008.61,VALID,0,VALID,104,VALID,0,VALID,23.1485,VALID,351,VALID,0,
2013-12-29, 01:41:04,VALID,1008.62,VALID,0,VALID,104,VALID,0,VALID,23.1485,VALID,351,VALID,0,
2013-12-29, 01:42:04,VALID,1008.61,VALID,0,VALID,104,VALID,0,VALID,23.1697,VALID,351,VALID,0,
2013-12-29, 01:43:04,VALID,1008.6,VALID,0,VALID,104,VALID,0,VALID,23.1485,VALID,351,VALID,0,
2013-12-29, 01:44:04,VALID,1008.58,VALID,0,VALID,104,VALID,0,VALID,23.1679,VALID,351,VALID,0,
2013-12-29, 01:45:04,VALID,1008.56,VALID,0,VALID,104,VALID,0,VALID,23.1679,VALID,351,VALID,0,
2013-12-29, 01:46:04,VALID,1008.56,VALID,0,VALID,104,VALID,0,VALID,23.1874,VALID,351,VALID,0,
2013-12-29, 01:47:04,VALID,1008.59,VALID,0,VALID,104,VALID,0,VALID,23.1874,VALID,351,VALID,0,
2013-12-29, 01:48:04,VALID,1008.58,VALID,0,VALID,104,VALID,0,VALID,23.2087,VALID,351,VALID,0,
2013-12-29, 01:49:04,VALID,1008.6,VALID,0,VALID,104,VALID,0,VALID,23.2069,VALID,351,VALID,0,
2013-12-29, 01:50:04,VALID,1008.6,VALID,0,VALID,104,VALID,0,VALID,23.1679,VALID,351,VALID,0,
2013-12-29, 01:51:04,VALID,1008.62,VALID,0,VALID,104,VALID,0,VALID,23.2087,VALID,351,VALID,0,
2013-12-29, 01:52:04,VALID,1008.58,VALID,0,VALID,104,VALID,0,VALID,23.2069,VALID,351,VALID,0,
2013-12-29, 01:53:04,VALID,1008.6,VALID,0,VALID,104,VALID,0,VALID,23.1874,VALID,351,VALID,0,
2013-12-29, 01:54:04,VALID,1008.56,VALID,0,VALID,104,VALID,0,VALID,23.2087,VALID,351,VALID,0,
2013-12-29, 01:55:04,VALID,1008.53,VALID,0,VALID,104,VALID,0,VALID,23.1679,VALID,351,VALID,0,
2013-12-29, 01:56:04,VALID,1008.53,VALID,0,VALID,104,VALID,0,VALID,23.1679,VALID,351,VALID,0,
2013-12-29, 01:57:04,VALID,1008.54,VALID,0,VALID,104,VALID,0,VALID,23.1679,VALID,351,VALID,0,
2013-12-29, 01:58:04,VALID,1008.52,VALID,0,VALID,104,VALID,0,VALID,23.1485,VALID,351,VALID,0,
2013-12-29, 01:59:04,VALID,1008.53,VALID,0,VALID,104,VALID,0,VALID,23.1502,VALID,351,VALID,0,
2013-12-29, 02:00:04,VALID,1008.53,VALID,0,VALID,104,VALID,0,VALID,23.1095,VALID,351,VALID,0,
2013-12-29, 02:01:04,VALID,1008.54,VALID,0,VALID,104,VALID,0,VALID,23.1095,VALID,351,VALID,0,
2013-12-29, 02:02:04,VALID,1008.54,VALID,0,VALID,104,VALID,0,VALID,23.1095,VALID,351,VALID,0,
2013-12-29, 02:03:04,VALID,1008.58,VALID,0,VALID,104,VALID,0,VALID,23.09,VALID,351,VALID,0,
2013-12-29, 02:04:04,VALID,1008.56,VALID,0,VALID,104,VALID,0,VALID,23.09,VALID,351,VALID,0,
2013-12-29, 02:05:04,VALID,1008.57,VALID,0,VALID,104,VALID,0,VALID,23.129,VALID,351,VALID,0,
2013-12-29, 02:06:04,VALID,1008.57,VALID,0,VALID,104,VALID,0,VALID,23.129,VALID,351,VALID,0,
2013-12-29, 02:07:04,VALID,1008.54,VALID,0,VALID,104,VALID,0,VALID,23.1485,VALID,351,VALID,0,
2013-12-29, 02:08:04,VALID,1008.54,VALID,0,VALID,104,VALID,0,VALID,23.1892,VALID,351,VALID,0,
2013-12-29, 02:09:04,VALID,1008.53,VALID,0,VALID,104,VALID,0,VALID,23.1874,VALID,351,VALID,0,
2013-12-29, 02:10:04,VALID,1008.5,VALID,0,VALID,104,VALID,0,VALID,23.2069,VALID,351,VALID,0,
2013-12-29, 02:11:04,VALID,1008.47,VALID,0,VALID,104,VALID,0,VALID,23.2459,VALID,351,VALID,0,
2013-12-29, 02:12:04,VALID,1008.48,VALID,0,VALID,104,VALID,0,VALID,23.2654,VALID,351,VALID,0,
2013-12-29, 02:13:04,VALID,1008.47,VALID,0,VALID,104,VALID,0,VALID,23.2848,VALID,351,VALID,0,
2013-12-29, 02:14:04,VALID,1008.46,VALID,0,VALID,104,VALID,0,VALID,23.3061,VALID,351,VALID,0,
2013-12-29, 02:15:04,VALID,1008.45,VALID,0,VALID,104,VALID,0,VALID,23.3043,VALID,351,VALID,0,
2013-12-29, 02:16:05,VALID,1008.41,VALID,0,VALID,104,VALID,0,VALID,23.3043,VALID,351,VALID,0,
2013-12-29, 02:17:05,VALID,1008.43,VALID,0,VALID,104,VALID,0,VALID,23.2848,VALID,351,VALID,0,
2013-12-29, 02:18:05,VALID,1008.41,VALID,0,VALID,104,VALID,0,VALID,23.2848,VALID,351,VALID,0,
2013-12-29, 02:19:05,VALID,1008.41,VALID,0,VALID,104,VALID,0.112112,VALID,23.2636,VALID,351,VALID,0,
2013-12-29, 02:20:05,VALID,1008.4,VALID,0,VALID,104,VALID,0.112112,VALID,23.2441,VALID,351,VALID,0,
2013-12-29, 02:21:05,VALID,1008.38,VALID,0,VALID,104,VALID,0,VALID,23.2246,VALID,351,VALID,0,
2013-12-29, 02:22:05,VALID,1008.34,VALID,0,VALID,104,VALID,0.112112,VALID,23.2441,VALID,351,VALID,0,
2013-12-29, 02:23:05,VALID,1008.3,VALID,0,VALID,104,VALID,0,VALID,23.2654,VALID,351,VALID,0,
2013-12-29, 02:24:05,VALID,1008.32,VALID,0,VALID,104,VALID,0.112112,VALID,23.2636,VALID,351,VALID,0,
2013-12-29, 02:25:05,VALID,1008.31,VALID,0,VALID,104,VALID,0,VALID,23.2848,VALID,351,VALID,0,
2013-12-29, 02:26:05,VALID,1008.3,VALID,0,VALID,104,VALID,0.112112,VALID,23.2831,VALID,351,VALID,0,
2013-12-29, 02:27:05,VALID,1008.32,VALID,0,VALID,104,VALID,0.112112,VALID,23.2636,VALID,351,VALID,0,
2013-12-29, 02:28:05,VALID,1008.31,VALID,0,VALID,104,VALID,0.112112,VALID,23.2441,VALID,351,VALID,0,
2013-12-29, 02:29:05,VALID,1008.3,VALID,0,VALID,104,VALID,0,VALID,23.2051,VALID,351,VALID,0,
2013-12-29, 02:30:05,VALID,1008.31,VALID,0,VALID,104,VALID,0.112112,VALID,23.2264,VALID,351,VALID,0,
2013-12-29, 02:31:05,VALID,1008.28,VALID,0,VALID,104,VALID,0,VALID,23.1857,VALID,351,VALID,0,
2013-12-29, 02:32:05,VALID,1008.27,VALID,0,VALID,104,VALID,0,VALID,23.2069,VALID,351,VALID,0,
2013-12-29, 02:33:05,VALID,1008.26,VALID,0,VALID,104,VALID,0.112112,VALID,23.1857,VALID,351,VALID,0,
2013-12-29, 02:34:05,VALID,1008.23,VALID,0,VALID,104,VALID,0,VALID,23.1874,VALID,351,VALID,0,
2013-12-29, 02:35:05,VALID,1008.22,VALID,0,VALID,104,VALID,0,VALID,23.1679,VALID,351,VALID,0,
2013-12-29, 02:36:05,VALID,1008.22,VALID,0,VALID,104,VALID,0,VALID,23.1874,VALID,351,VALID,0,
2013-12-29, 02:37:05,VALID,1008.2,VALID,0,VALID,104,VALID,0,VALID,23.1874,VALID,351,VALID,0,
2013-12-29, 02:38:05,VALID,1008.19,VALID,0,VALID,104,VALID,0,VALID,23.2087,VALID,351,VALID,0,
2013-12-29, 02:39:05,VALID,1008.14,VALID,0,VALID,104,VALID,0,VALID,23.1874,VALID,351,VALID,0,
2013-12-29, 02:40:05,VALID,1008.13,VALID,0,VALID,104,VALID,0,VALID,23.2069,VALID,351,VALID,0,
2013-12-29, 02:41:05,VALID,1008.1,VALID,0,VALID,104,VALID,0,VALID,23.1662,VALID,351,VALID,0,
2013-12-29, 02:42:05,VALID,1008.06,VALID,0,VALID,104,VALID,0,VALID,23.2087,VALID,351,VALID,0,
2013-12-29, 02:43:05,VALID,1008.06,VALID,0,VALID,104,VALID,0,VALID,23.2087,VALID,351,VALID,0,
2013-12-29, 02:44:05,VALID,1008.02,VALID,0,VALID,104,VALID,0,VALID,23.2069,VALID,351,VALID,0,
2013-12-29, 02:45:05,VALID,1007.99,VALID,0,VALID,104,VALID,0,VALID,23.2069,VALID,351,VALID,0,
2013-12-29, 02:46:05,VALID,1007.99,VALID,0,VALID,104,VALID,0,VALID,23.1874,VALID,351,VALID,0,
2013-12-29, 02:47:05,VALID,1007.95,VALID,0,VALID,104,VALID,0,VALID,23.2282,VALID,351,VALID,0,
2013-12-29, 02:48:05,VALID,1007.93,VALID,0,VALID,104,VALID,0,VALID,23.2069,VALID,351,VALID,0,
2013-12-29, 02:49:05,VALID,1007.93,VALID,0,VALID,104,VALID,0,VALID,23.1874,VALID,351,VALID,0,
2013-12-29, 02:50:05,VALID,1007.91,VALID,0,VALID,104,VALID,0,VALID,23.1874,VALID,351,VALID,0,
2013-12-29, 02:51:05,VALID,1007.92,VALID,0,VALID,104,VALID,0,VALID,23.1892,VALID,351,VALID,0,
2013-12-29, 02:52:05,VALID,1007.89,VALID,0,VALID,104,VALID,0,VALID,23.1679,VALID,351,VALID,0,
2013-12-29, 02:53:05,VALID,1007.88,VALID,0,VALID,104,VALID,0,VALID,23.1679,VALID,351,VALID,0,
2013-12-29, 02:54:05,VALID,1007.89,VALID,0,VALID,104,VALID,0,VALID,23.1679,VALID,351,VALID,0,
2013-12-29, 02:55:05,VALID,1007.9,VALID,0,VALID,104,VALID,0,VALID,23.1679,VALID,351,VALID,0,
2013-12-29, 02:56:05,VALID,1007.9,VALID,0,VALID,104,VALID,0,VALID,23.1697,VALID,351,VALID,0,
2013-12-29, 02:57:05,VALID,1007.9,VALID,0,VALID,104,VALID,0,VALID,23.1502,VALID,351,VALID,0,
2013-12-29, 02:58:05,VALID,1007.88,VALID,0,VALID,104,VALID,0,VALID,23.129,VALID,351,VALID,0,
2013-12-29, 02:59:05,VALID,1007.9,VALID,0,VALID,104,VALID,0,VALID,23.129,VALID,351,VALID,0,
2013-12-29, 03:00:05,VALID,1007.87,VALID,0,VALID,104,VALID,0,VALID,23.129,VALID,351,VALID,0,
2013-12-29, 03:01:05,VALID,1007.86,VALID,0,VALID,104,VALID,0,VALID,23.129,VALID,351,VALID,0,
2013-12-29, 03:02:05,VALID,1007.86,VALID,0,VALID,104,VALID,0,VALID,23.129,VALID,351,VALID,0,
2013-12-29, 03:03:05,VALID,1007.86,VALID,0,VALID,104,VALID,0,VALID,23.129,VALID,351,VALID,0,
2013-12-29, 03:04:05,VALID,1007.88,VALID,0,VALID,104,VALID,0,VALID,23.1077,VALID,351,VALID,0,
2013-12-29, 03:05:05,VALID,1007.88,VALID,0,VALID,104,VALID,0.112112,VALID,23.129,VALID,351,VALID,0,
2013-12-29, 03:06:05,VALID,1007.86,VALID,0,VALID,104,VALID,0.112112,VALID,23.1077,VALID,351,VALID,0,
2013-12-29, 03:07:05,VALID,1007.87,VALID,0,VALID,104,VALID,0.112112,VALID,23.0883,VALID,351,VALID,0,
2013-12-29, 03:08:05,VALID,1007.87,VALID,0,VALID,104,VALID,0,VALID,23.0705,VALID,351,VALID,0,
2013-12-29, 03:09:05,VALID,1007.84,VALID,0,VALID,104,VALID,0.112112,VALID,23.0705,VALID,351,VALID,0,
2013-12-29, 03:10:05,VALID,1007.86,VALID,0,VALID,104,VALID,0,VALID,23.0511,VALID,351,VALID,0,
2013-12-29, 03:11:05,VALID,1007.84,VALID,0,VALID,104,VALID,0.112112,VALID,23.0103,VALID,351,VALID,0,
2013-12-29, 03:12:05,VALID,1007.82,VALID,0,VALID,104,VALID,0,VALID,23.0316,VALID,351,VALID,0,
2013-12-29, 03:13:05,VALID,1007.82,VALID,0,VALID,104,VALID,0.112112,VALID,23.0298,VALID,351,VALID,0,
2013-12-29, 03:14:05,VALID,1007.83,VALID,0,VALID,104,VALID,0.112112,VALID,23.0298,VALID,351,VALID,0,
2013-12-29, 03:15:05,VALID,1007.82,VALID,0,VALID,104,VALID,0.112112,VALID,23.0316,VALID,351,VALID,0,
2013-12-29, 03:16:05,VALID,1007.82,VALID,0,VALID,104,VALID,0,VALID,23.0103,VALID,351,VALID,0,
2013-12-29, 03:17:05,VALID,1007.84,VALID,0,VALID,104,VALID,0.112112,VALID,23.0511,VALID,351,VALID,0,
2013-12-29, 03:18:05,VALID,1007.87,VALID,0,VALID,104,VALID,0,VALID,23.0511,VALID,351,VALID,0,
2013-12-29, 03:19:05,VALID,1007.86,VALID,0,VALID,104,VALID,0,VALID,23.0316,VALID,351,VALID,0,
2013-12-29, 03:20:05,VALID,1007.89,VALID,0.5,VALID,104,VALID,0,VALID,23.0316,VALID,351,VALID,0,
2013-12-29, 03:21:05,VALID,1007.88,VALID,0,VALID,104,VALID,0,VALID,23.0333,VALID,351,VALID,0,
2013-12-29, 03:22:05,VALID,1007.91,VALID,0,VALID,104,VALID,0,VALID,23.0121,VALID,351,VALID,0,
2013-12-29, 03:23:05,VALID,1007.93,VALID,0,VALID,104,VALID,0,VALID,23.0333,VALID,351,VALID,0,
2013-12-29, 03:24:05,VALID,1007.93,VALID,0,VALID,104,VALID,0,VALID,23.0316,VALID,351,VALID,0,
2013-12-29, 03:25:05,VALID,1007.95,VALID,0,VALID,104,VALID,0,VALID,23.0528,VALID,351,VALID,0,
2013-12-29, 03:26:05,VALID,1007.93,VALID,0,VALID,104,VALID,0,VALID,23.0121,VALID,351,VALID,0,
2013-12-29, 03:27:05,VALID,1007.95,VALID,0,VALID,104,VALID,0,VALID,23.0316,VALID,351,VALID,0,
2013-12-29, 03:28:05,VALID,1007.96,VALID,0,VALID,104,VALID,0,VALID,23.0333,VALID,351,VALID,0,
2013-12-29, 03:29:05,VALID,1007.96,VALID,0,VALID,104,VALID,0,VALID,23.0121,VALID,351,VALID,0,
2013-12-29, 03:30:05,VALID,1007.98,VALID,0,VALID,104,VALID,0,VALID,23.0121,VALID,351,VALID,0,
2013-12-29, 03:31:05,VALID,1007.99,VALID,0,VALID,104,VALID,0,VALID,22.9926,VALID,351,VALID,0,
2013-12-29, 03:32:05,VALID,1007.98,VALID,0,VALID,104,VALID,0,VALID,22.9926,VALID,351,VALID,0,
2013-12-29, 03:33:05,VALID,1007.98,VALID,0,VALID,104,VALID,0,VALID,22.9926,VALID,351,VALID,0,
2013-12-29, 03:34:05,VALID,1007.97,VALID,0,VALID,104,VALID,0,VALID,22.9731,VALID,351,VALID,0,
2013-12-29, 03:35:05,VALID,1007.99,VALID,0,VALID,104,VALID,0,VALID,22.9536,VALID,351,VALID,0,
2013-12-29, 03:36:05,VALID,1008.02,VALID,0,VALID,104,VALID,0,VALID,22.9536,VALID,351,VALID,0,
2013-12-29, 03:37:05,VALID,1008.01,VALID,0,VALID,104,VALID,0,VALID,22.9147,VALID,351,VALID,0,
2013-12-29, 03:38:05,VALID,1008.03,VALID,0,VALID,104,VALID,0,VALID,22.9342,VALID,351,VALID,0,
2013-12-29, 03:39:05,VALID,1008.04,VALID,0,VALID,104,VALID,0,VALID,22.9342,VALID,351,VALID,0,
2013-12-29, 03:40:05,VALID,1008.04,VALID,0,VALID,104,VALID,0,VALID,22.9342,VALID,351,VALID,0,
2013-12-29, 03:41:05,VALID,1008.06,VALID,0,VALID,104,VALID,0,VALID,22.9342,VALID,351,VALID,0,
2013-12-29, 03:42:05,VALID,1008.06,VALID,0,VALID,104,VALID,0,VALID,22.9342,VALID,351,VALID,0,
2013-12-29, 03:43:05,VALID,1008.06,VALID,0,VALID,104,VALID,0,VALID,22.9324,VALID,351,VALID,0,
2013-12-29, 03:44:05,VALID,1008.05,VALID,0,VALID,104,VALID,0,VALID,22.9731,VALID,351,VALID,0,
2013-12-29, 03:45:05,VALID,1008.03,VALID,0,VALID,104,VALID,0,VALID,22.9926,VALID,351,VALID,0,
2013-12-29, 03:46:05,VALID,1008.05,VALID,0,VALID,104,VALID,0,VALID,22.9926,VALID,351,VALID,0,
2013-12-29, 03:47:05,VALID,1008.03,VALID,0,VALID,104,VALID,0,VALID,22.9926,VALID,351,VALID,0,
2013-12-29, 03:48:05,VALID,1008.04,VALID,0,VALID,104,VALID,0,VALID,22.9926,VALID,351,VALID,0,
2013-12-29, 03:49:05,VALID,1008.02,VALID,0,VALID,104,VALID,0,VALID,22.9926,VALID,351,VALID,0,
2013-12-29, 03:50:05,VALID,1008.02,VALID,0,VALID,104,VALID,0,VALID,22.9926,VALID,351,VALID,0,
2013-12-29, 03:51:05,VALID,1008.02,VALID,0,VALID,104,VALID,0,VALID,22.9731,VALID,351,VALID,0,
2013-12-29, 03:52:05,VALID,1008.03,VALID,0,VALID,104,VALID,0,VALID,22.9943,VALID,351,VALID,0,
2013-12-29, 03:53:05,VALID,1008.01,VALID,0,VALID,104,VALID,0,VALID,22.9536,VALID,351,VALID,0,
2013-12-29, 03:54:05,VALID,1008,VALID,0,VALID,104,VALID,0,VALID,22.9342,VALID,351,VALID,0,
2013-12-29, 03:55:05,VALID,1007.99,VALID,0,VALID,104,VALID,0,VALID,22.9554,VALID,351,VALID,0,
2013-12-29, 03:56:05,VALID,1007.98,VALID,0,VALID,104,VALID,0,VALID,22.9554,VALID,351,VALID,0,
2013-12-29, 03:57:05,VALID,1007.99,VALID,0,VALID,104,VALID,0,VALID,22.9342,VALID,351,VALID,0,
2013-12-29, 03:58:05,VALID,1008.01,VALID,0,VALID,104,VALID,0,VALID,22.9749,VALID,351,VALID,0,
2013-12-29, 03:59:05,VALID,1008.01,VALID,0,VALID,104,VALID,0,VALID,22.9342,VALID,351,VALID,0,
2013-12-29, 04:00:05,VALID,1008.01,VALID,0,VALID,104,VALID,0,VALID,22.9342,VALID,351,VALID,0,
2013-12-29, 04:01:05,VALID,1008.02,VALID,0,VALID,104,VALID,0,VALID,22.9536,VALID,351,VALID,0,
2013-12-29, 04:02:05,VALID,1008.02,VALID,0,VALID,104,VALID,0,VALID,22.9147,VALID,351,VALID,0,
2013-12-29, 04:03:05,VALID,1008.02,VALID,0,VALID,104,VALID,0,VALID,22.8952,VALID,351,VALID,0,
2013-12-29, 04:04:05,VALID,1008.06,VALID,0,VALID,104,VALID,0,VALID,22.8775,VALID,351,VALID,0,
2013-12-29, 04:05:05,VALID,1008.04,VALID,0,VALID,104,VALID,0,VALID,22.8775,VALID,351,VALID,0,
2013-12-29, 04:06:05,VALID,1008.03,VALID,0,VALID,104,VALID,0,VALID,22.8562,VALID,351,VALID,0,
2013-12-29, 04:07:05,VALID,1008.04,VALID,0,VALID,104,VALID,0,VALID,22.8775,VALID,351,VALID,0,